#timestamp,LO_Frequency,Hit,StdDev 
1590026415.0,286047001.8,N
1590026415.9,286047001.8,N
1590026435.8,286047000.0,N
1590026455.6,286046998.1,N
1590026475.5,286046998.4,N
1590026495.3,286046996.5,N
1590026515.1,286046998.1,N
1590026535.9,286047000.1,N
1590026555.7,286046998.3,N
1590026575.6,286046998.7,N
1590026595.4,286047000.9,N
1590026615.2,286046998.3,N
1590026635.1,286046999.9,N
1590026636.0,286046999.9,N
1590026655.8,286047000.0,N
1590026675.6,286047001.1,N
1590026695.5,286047000.7,N
1590026715.3,286046998.1,N
1590026735.2,286046998.2,N
1590026755.0,286047000.6,N
1590026755.9,286047000.6,N
1590026775.7,286047000.0,N
1590026795.6,286047001.7,N
1590026815.4,286047002.3,N
1590026835.3,286047003.8,N
1590026855.1,286047001.7,N
1590026856.0,286047001.7,N
1590026875.8,286047001.6,N
1590026895.7,286047003.7,N
1590026915.5,286047004.1,N
1590026935.4,286046999.8,N
1590026955.2,286047002.5,N
1590026975.0,286046999.9,N
1590026975.9,286046999.9,N
1590026995.8,286046999.8,N
1590027015.6,286046997.0,N
1590027035.4,286047000.4,N
1590027055.3,286047000.8,N
1590027075.1,286047001.5,N
1590027095.9,286047000.6,N
1590027115.7,286047001.7,N
1590027135.5,286047001.5,N
1590027155.4,286047004.0,N
1590027175.2,286047003.6,N
1590027195.1,286047004.6,N
1590027196.0,286047004.6,N
1590027215.8,286047001.3,N
1590027235.6,286046999.9,N
1590027255.5,286047000.3,N
1590027275.3,286047002.3,N
1590027295.2,286047000.9,N
1590027315.9,286046998.7,N
1590027335.7,286046999.1,N
1590027355.6,286047000.5,N
1590027375.4,286047002.2,N
1590027395.2,286047000.7,N
1590027415.1,286047002.4,N
1590027416.0,286047002.4,N
1590027435.8,286047000.2,N
1590027455.7,286047001.5,N
1590027475.5,286047003.6,N
1590027495.3,286047005.8,Y
1590027515.2,286047003.6,P
1590027535.0,286047007.1,P
1590027535.9,286047007.1,N
1590027555.8,286047006.3,N
1590027575.6,286047005.3,N
1590027595.4,286047005.5,N
1590027615.3,286047005.3,N
1590027635.1,286047005.9,Y
1590027655.8,286046999.0,P
1590027675.7,286046998.5,N
1590027695.5,286046999.2,N
1590027715.4,286046996.5,N
1590027735.2,286046997.0,N
1590027755.0,286047000.8,N
1590027755.9,286047000.8,N
1590027775.8,286046999.1,N
1590027795.6,286046998.9,N
1590027815.5,286046998.9,N
1590027835.3,286046996.5,N
1590027855.1,286046996.7,N
1590027875.9,286046996.7,N
1590027895.7,286046999.0,N
1590027915.6,286046998.9,N
1590027935.4,286046998.6,N
1590027955.2,286047000.8,N
1590027975.1,286047000.0,N
1590027976.0,286047000.0,N
1590027995.8,286047000.8,N
1590028015.7,286046999.4,N
1590028035.5,286046998.5,N
1590028055.3,286046999.4,N
1590028075.2,286046996.9,N
1590028095.0,286046997.1,N
1590028095.9,286046997.1,N
1590028115.8,286046998.8,N
1590028135.6,286046996.9,N
1590028155.4,286046999.0,N
1590028175.3,286047000.7,N
1590028195.1,286046999.3,N
1590028215.9,286046999.6,N
1590028235.7,286046998.9,N
1590028255.5,286046999.0,N
1590028275.4,286047002.7,N
1590028295.2,286047001.0,N
1590028315.1,286046998.8,N
1590028316.0,286046998.8,N
1590028335.8,286046997.2,N
1590028355.6,286046996.8,N
1590028375.5,286046994.9,Y
1590028395.3,286046999.2,P
1590028415.1,286046999.4,P
1590028435.9,286046998.6,P
1590028455.7,286047000.5,N
1590028475.6,286047000.8,N
1590028495.4,286047000.3,N
1590028515.2,286046999.2,N
1590028535.1,286046999.2,N
1590028536.0,286046999.2,N
1590028555.8,286046997.7,Y
1590028575.7,286046998.4,P
1590028595.5,286046999.2,N
1590028615.3,286047001.2,N
1590028635.2,286046998.3,N
1590028655.0,286047000.7,N
1590028655.9,286047000.7,N
1590028675.8,286046999.4,N
1590028695.6,286047000.6,N
1590028715.4,286047001.0,N
1590028735.3,286047000.6,N
1590028755.1,286047000.7,N
1590028775.9,286047000.4,N
1590028795.7,286047000.8,N
1590028815.5,286046998.2,N
1590028835.4,286047001.0,N
1590028855.2,286046998.6,N
1590028875.0,286047000.6,N
1590028875.9,286047000.6,N
1590028895.8,286047002.3,N
1590028915.6,286046999.9,N
1590028935.5,286046999.9,N
1590028955.3,286047002.6,N
1590028975.1,286047003.1,N
1590028995.9,286047002.0,N
1590029015.7,286047002.1,N
1590029035.5,286047000.7,N
1590029055.4,286047000.3,N
1590029075.2,286047000.4,N
1590029095.1,286047003.8,Y
1590029096.0,286047003.8,P
1590029115.8,286047000.4,N
1590029135.6,286047002.6,N
1590029155.5,286047004.0,N
1590029175.3,286047002.2,N
1590029195.2,286046998.3,N
1590029215.9,286047000.8,N
1590029235.7,286046998.6,N
1590029255.6,286047000.9,N
1590029275.4,286046998.3,N
1590029295.3,286047000.2,N
1590029315.1,286047000.5,N
1590029316.0,286047000.5,N
1590029335.8,286046999.7,N
1590029355.7,286047001.3,N
1590029375.5,286047004.1,N
1590029395.3,286047001.7,N
1590029415.2,286047002.4,N
1590029435.0,286046998.8,N
1590029435.9,286046998.8,N
1590029455.8,286046999.4,N
1590029475.6,286046998.3,N
1590029495.4,286047001.0,N
1590029515.3,286047002.8,N
1590029535.1,286047002.6,N
1590029555.9,286047004.3,N
1590029575.7,286046999.9,N
1590029595.5,286047003.4,N
1590029615.4,286047001.5,N
1590029635.2,286047001.7,N
1590029655.1,286047003.7,N
1590029656.0,286047003.7,N
1590029675.8,286047003.7,N
1590029695.7,286047001.5,N
1590029715.5,286047002.5,N
1590029735.3,286047001.2,N
1590029755.2,286046999.8,N
1590029775.0,286047002.1,N
1590029775.9,286047002.1,N
1590029795.7,286047002.3,N
1590029815.6,286047002.5,N
1590029835.4,286047001.8,N
1590029855.3,286047003.8,N
1590029875.1,286047002.5,N
1590029895.8,286047002.3,N
1590029915.7,286047001.8,N
1590029935.5,286046999.7,N
1590029955.4,286047002.0,N
1590029975.2,286047000.0,N
1590029995.0,286047001.9,N
1590029995.9,286047001.9,N
